Regional Weather Roundup
Issued by NWS

Home | Current Version | Previous Version | Text Only | Print | Product List | Glossary Off
Versions: 1 2 3 4 5 6 7 8 9 10 11 12 13 14 15 16 17 18 19 20 21 22 23 24 25 26 27 28 29 30 31 32 33 34 35 36 37 38 39 40 41 42 43 44 45 46 47 48 49 50

000
ASUS43 KOAX 302202
RWRNE

WEATHER ROUNDUP FOR NEBRASKA
NATIONAL WEATHER SERVICE OMAHA NE
500 PM CDT MON MAY 30 2016

NOTES: SATELLITE DATA IS BEING USED TO AUGMENT CLOUD COVER ABOVE
       12000 FEET.
       "FAIR" INDICATES FEW OR NO CLOUDS BELOW 12,000 FEET WITH NO
       SIGNIFICANT WEATHER AND/OR OBSTRUCTIONS TO VISIBILITY.

  * THESE STATIONS DO NOT REPORT WEATHER SUCH AS RAIN...SNOW OR FOG.

NEZ001>004-019>022-054>056-302300-
NEBRASKA PANHANDLE

CITY           SKY/WX    TMP DP  RH WIND       PRES   REMARKS
SCOTTSBLUFF    CLOUDY    67  45  45 S13       29.93F
ALLIANCE       CLOUDY    73  46  38 SW22G29   29.90R
CHADRON        CLOUDY    79  46  31 NW15G30   29.86R
SIDNEY         TSTM      56  48  74 N10       30.01F
$$

NEZ057>060-069>072-079>082-302300-
SOUTHWEST NEBRASKA

CITY           SKY/WX    TMP DP  RH WIND       PRES   REMARKS
NORTH PLATTE   SUNNY     81  58  45 S14       29.84F
IMPERIAL       SUNNY     82  54  37 S10       29.85F
LEXINGTON      SUNNY     81  56  42 S17       29.85F
MCCOOK         SUNNY     82  58  43 S15G22    29.83F
$$

NEZ005>010-023>029-035>040-094-302300-
NORTH CENTRAL NEBRASKA

CITY           SKY/WX    TMP DP  RH WIND       PRES   REMARKS
VALENTINE      CLOUDY    74  53  48 S9        29.80F
AINSWORTH      SUNNY     81  51  34 S18G24    29.81F
BROKEN BOW     SUNNY     82  55  39 S17G28    29.84F
ORD            SUNNY     84  53  34 S16G22    29.82F
$$

NEZ041-046>049-061>064-073>077-083>087-302300-
SOUTH CENTRAL NEBRASKA

CITY           SKY/WX    TMP DP  RH WIND       PRES   REMARKS
GRAND ISLAND   SUNNY     85  50  29 S18G25    29.85F
AURORA         SUNNY     83  52  33 S15       29.86F
HASTINGS       SUNNY     82  55  39 S16G23    29.87F
KEARNEY *      SUNNY     82  54  36 S15G24    29.87F
YORK           SUNNY     82  55  39 S21       29.86F
$$

NEZ011>018-030>034-042>045-302300-
NORTHEAST NEBRASKA

CITY           SKY/WX    TMP DP  RH WIND       PRES   REMARKS
NORFOLK        SUNNY     83  54  36 S14       29.83F
ALBION         SUNNY     82  58  44 S14       29.84F
BLAIR          CLOUDY    83  60  45 S20G26    29.87S
FREMONT        CLOUDY    85  58  40 S14       29.85F
TEKAMAH        SUNNY     89  52  28 S16       29.83F
$$

NEZ050>053-065>068-078-088>093-302300-
SOUTHEAST NEBRASKA

CITY           SKY/WX    TMP DP  RH WIND       PRES   REMARKS
LINCOLN        SUNNY     87  55  33 SW16      29.86F
OMAHA EPPLEY   TSTM      82  57  42 S18G28    29.86F
BEATRICE       MOSUNNY   84  61  45 SW16      29.87F
FALLS CITY     LGT RAIN  85  65  51 S14G24    29.88F
NEBRASKA CITY  TSTM      76  58  52 S3        29.89F
PLATTSMOUTH    CLOUDY    71  63  77 SE14G23   29.91R
$$

NEZ044-045-051>053-067-302300-
OMAHA AREA

CITY           SKY/WX    TMP DP  RH WIND       PRES   REMARKS
OMAHA EPPLEY   TSTM      82  57  42 S18G28    29.86F
BLAIR          CLOUDY    83  60  45 S20G26    29.87S
FREMONT        CLOUDY    85  58  40 S14       29.85F
OFFUTT AFB     PTSUNNY   78  61  55 S12       29.89R
PLATTSMOUTH    CLOUDY    71  63  77 SE14G23   29.91R
WAHOO          FAIR      87  55  33 S17       29.85F
$$



USA.gov is the U.S. government's official web portal to all federal, state and local government web resources and services.